Time,TemperatureF,DewpointF,PressureIn,WindDirection,WindDirectionDegrees,WindSpeedMPH,WindSpeedGustMPH,Humidity,HourlyPrecipIn,Conditions,Clouds,dailyrainin,SoftwareType,DateUTC
2013-04-01 00:00:00,18.8,11.6,30.21,NW,308,10.0,10.0,73,0.00,,CLR,0.00,VWS V14.01,2013-04-01 05:00:00,
2013-04-01 00:03:00,18.8,11.6,30.21,WNW,294,6.0,9.0,73,0.00,,CLR,0.00,VWS V14.01,2013-04-01 05:03:00,
2013-04-01 00:05:00,18.6,11.4,30.22,NW,315,7.0,7.0,73,0.00,,CLR,0.00,VWS V14.01,2013-04-01 05:05:00,
2013-04-01 00:08:00,18.6,11.4,30.22,WNW,303,12.0,12.0,73,0.00,,CLR,0.00,VWS V14.01,2013-04-01 05:08:00,
2013-04-01 00:10:00,18.5,11.3,30.22,NW,317,12.0,12.0,73,0.00,,CLR,0.00,VWS V14.01,2013-04-01 05:10:00,
2013-04-01 00:13:00,18.5,11.3,30.22,WNW,300,9.0,12.0,73,0.00,,CLR,0.00,VWS V14.01,2013-04-01 05:13:00,
2013-04-01 00:15:00,18.4,11.2,30.22,WNW,294,6.0,6.0,73,0.00,,CLR,0.00,VWS V14.01,2013-04-01 05:15:00,
2013-04-01 00:18:00,18.4,11.2,30.23,WNW,300,7.0,9.0,73,0.00,,CLR,0.00,VWS V14.01,2013-04-01 05:18:00,
2013-04-01 00:20:00,18.2,11.3,30.23,NW,309,4.0,4.0,74,0.00,,CLR,0.00,VWS V14.01,2013-04-01 05:20:00,
2013-04-01 00:23:00,18.2,11.3,30.23,NW,314,5.0,5.0,74,0.00,,CLR,0.00,VWS V14.01,2013-04-01 05:23:00,
2013-04-01 00:25:00,18.1,11.2,30.23,NW,313,5.0,6.0,74,0.00,,CLR,0.00,VWS V14.01,2013-04-01 05:25:00,
2013-04-01 00:28:00,18.1,11.2,30.23,NW,304,5.0,6.0,74,0.00,,CLR,0.00,VWS V14.01,2013-04-01 05:28:00,
2013-04-01 00:30:00,17.9,11.0,30.23,NW,319,4.0,6.0,74,0.00,,CLR,0.00,VWS V14.01,2013-04-01 05:30:00,
2013-04-01 00:33:00,17.9,11.0,30.23,NW,307,6.0,6.0,74,0.00,,CLR,0.00,VWS V14.01,2013-04-01 05:33:00,
2013-04-01 00:35:00,17.8,10.9,30.23,NW,319,5.0,9.0,74,0.00,,CLR,0.00,VWS V14.01,2013-04-01 05:35:00,
2013-04-01 00:38:00,17.8,10.9,30.23,NW,325,9.0,9.0,74,0.00,,CLR,0.00,VWS V14.01,2013-04-01 05:38:00,
2013-04-01 00:40:00,17.8,10.9,30.23,NW,318,6.0,6.0,74,0.00,,CLR,0.00,VWS V14.01,2013-04-01 05:40:00,
2013-04-01 00:44:00,17.8,10.9,30.23,WNW,292,10.0,10.0,74,0.00,,CLR,0.00,VWS V14.01,2013-04-01 05:44:00,
2013-04-01 00:45:00,17.7,10.8,30.23,NW,307,4.0,7.0,74,0.00,,CLR,0.00,VWS V14.01,2013-04-01 05:45:00,
2013-04-01 00:49:00,17.7,10.8,30.23,WNW,300,7.0,9.0,74,0.00,,CLR,0.00,VWS V14.01,2013-04-01 05:49:00,
2013-04-01 00:50:00,17.6,10.7,30.23,NW,319,6.0,6.0,74,0.00,,CLR,0.00,VWS V14.01,2013-04-01 05:50:00,
2013-04-01 00:54:00,17.6,10.7,30.23,WNW,296,10.0,10.0,74,0.00,,CLR,0.00,VWS V14.01,2013-04-01 05:54:00,
2013-04-01 00:55:00,17.5,10.6,30.23,NW,321,5.0,6.0,74,0.00,,CLR,0.00,VWS V14.01,2013-04-01 05:55:00,
2013-04-01 00:59:00,17.5,10.9,30.23,WNW,302,8.0,10.0,75,0.00,,CLR,0.00,VWS V14.01,2013-04-01 05:59:00,
2013-04-01 01:00:00,17.4,10.9,30.24,NW,321,10.0,11.0,75,0.00,,CLR,0.00,VWS V14.01,2013-04-01 06:00:00,
2013-04-01 01:04:00,17.5,10.9,30.24,NW,315,9.0,9.0,75,0.00,,CLR,0.00,VWS V14.01,2013-04-01 06:04:00,
2013-04-01 01:05:00,17.5,10.9,30.24,NW,316,11.0,11.0,75,0.00,,CLR,0.00,VWS V14.01,2013-04-01 06:05:00,
2013-04-01 01:09:00,17.5,10.9,30.24,NW,309,14.0,14.0,75,0.00,,CLR,0.00,VWS V14.01,2013-04-01 06:09:00,
2013-04-01 01:10:00,17.4,10.9,30.24,NW,311,10.0,11.0,75,0.00,,CLR,0.00,VWS V14.01,2013-04-01 06:10:00,
2013-04-01 01:14:00,17.5,10.9,30.24,NW,310,10.0,11.0,75,0.00,,CLR,0.00,VWS V14.01,2013-04-01 06:14:00,
2013-04-01 01:15:00,17.5,10.9,30.24,NW,319,8.0,11.0,75,0.00,,CLR,0.00,VWS V14.01,2013-04-01 06:15:00,
2013-04-01 01:19:00,17.4,10.9,30.24,NNW,336,6.0,6.0,75,0.00,,CLR,0.00,VWS V14.01,2013-04-01 06:19:00,
2013-04-01 01:20:00,17.3,10.8,30.24,WNW,302,9.0,9.0,75,0.00,,CLR,0.00,VWS V14.01,2013-04-01 06:20:00,
2013-04-01 01:24:00,17.3,10.8,30.24,NW,319,9.0,12.0,75,0.00,,CLR,0.00,VWS V14.01,2013-04-01 06:24:00,
2013-04-01 01:25:00,17.3,10.8,30.24,NW,317,8.0,11.0,75,0.00,,CLR,0.00,VWS V14.01,2013-04-01 06:25:00,
2013-04-01 01:29:00,17.3,10.8,30.24,NNW,327,8.0,10.0,75,0.00,,CLR,0.00,VWS V14.01,2013-04-01 06:29:00,
2013-04-01 01:30:00,17.3,10.8,30.24,NW,311,7.0,8.0,75,0.00,,CLR,0.00,VWS V14.01,2013-04-01 06:30:00,
2013-04-01 01:34:00,17.2,10.6,30.24,NW,323,10.0,11.0,75,0.00,,CLR,0.00,VWS V14.01,2013-04-01 06:34:00,
2013-04-01 01:35:00,17.2,10.6,30.24,NW,324,5.0,7.0,75,0.00,,CLR,0.00,VWS V14.01,2013-04-01 06:35:00,
2013-04-01 01:39:00,17.2,10.6,30.24,WNW,291,6.0,6.0,75,0.00,,CLR,0.00,VWS V14.01,2013-04-01 06:39:00,
2013-04-01 01:40:00,17.1,10.6,30.25,WNW,303,7.0,10.0,75,0.00,,CLR,0.00,VWS V14.01,2013-04-01 06:40:00,
2013-04-01 01:44:00,17.1,10.6,30.25,NW,314,9.0,9.0,75,0.00,,CLR,0.00,VWS V14.01,2013-04-01 06:44:00,
2013-04-01 01:45:00,17.1,10.6,30.25,NNW,327,10.0,11.0,75,0.00,,CLR,0.00,VWS V14.01,2013-04-01 06:45:00,
2013-04-01 01:49:00,17.1,10.6,30.25,NW,307,11.0,11.0,75,0.00,,CLR,0.00,VWS V14.01,2013-04-01 06:49:00,
2013-04-01 01:50:00,17.0,10.5,30.25,NW,323,11.0,13.0,75,0.00,,CLR,0.00,VWS V14.01,2013-04-01 06:50:00,
2013-04-01 01:54:00,17.0,10.5,30.24,NNW,331,10.0,11.0,75,0.00,,CLR,0.00,VWS V14.01,2013-04-01 06:54:00,
2013-04-01 01:55:00,16.9,10.4,30.25,NNW,338,11.0,13.0,75,0.00,,CLR,0.00,VWS V14.01,2013-04-01 06:55:00,
2013-04-01 01:59:00,16.9,10.4,30.25,NW,317,10.0,11.0,75,0.00,,CLR,0.00,VWS V14.01,2013-04-01 06:59:00,
2013-04-01 02:00:00,16.8,10.6,30.25,NW,311,13.0,14.0,76,0.00,,CLR,0.00,VWS V14.01,2013-04-01 07:00:00,
2013-04-01 02:04:00,16.8,10.6,30.25,NNW,331,11.0,11.0,76,0.00,,CLR,0.00,VWS V14.01,2013-04-01 07:04:00,
2013-04-01 02:05:00,16.7,10.5,30.25,NNW,327,8.0,8.0,76,0.00,,CLR,0.00,VWS V14.01,2013-04-01 07:05:00,
2013-04-01 02:09:00,16.7,10.5,30.24,NW,325,9.0,11.0,76,0.00,,CLR,0.00,VWS V14.01,2013-04-01 07:09:00,
2013-04-01 02:10:00,16.6,10.4,30.25,NW,318,7.0,10.0,76,0.00,,CLR,0.00,VWS V14.01,2013-04-01 07:10:00,
2013-04-01 02:15:00,16.6,10.4,30.25,NW,309,10.0,10.0,76,0.00,,CLR,0.00,VWS V14.01,2013-04-01 07:15:00,
2013-04-01 02:20:00,16.5,10.3,30.24,NW,321,11.0,11.0,76,0.00,,CLR,0.00,VWS V14.01,2013-04-01 07:20:00,
2013-04-01 02:25:00,16.4,10.2,30.25,NW,308,9.0,11.0,76,0.00,,CLR,0.00,VWS V14.01,2013-04-01 07:25:00,
2013-04-01 02:30:00,16.3,10.1,30.25,NW,325,8.0,9.0,76,0.00,,CLR,0.00,VWS V14.01,2013-04-01 07:30:00,
2013-04-01 02:35:00,16.1,10.2,30.25,NNW,334,8.0,8.0,77,0.00,,CLR,0.00,VWS V14.01,2013-04-01 07:35:00,
2013-04-01 02:40:00,16.1,10.2,30.25,WNW,301,6.0,8.0,77,0.00,,CLR,0.00,VWS V14.01,2013-04-01 07:40:00,
2013-04-01 02:45:00,16.0,10.1,30.25,NW,312,7.0,7.0,77,0.00,,CLR,0.00,VWS V14.01,2013-04-01 07:45:00,
2013-04-01 02:50:00,16.0,10.1,30.25,NNW,339,9.0,13.0,77,0.00,,CLR,0.00,VWS V14.01,2013-04-01 07:50:00,
2013-04-01 02:55:00,15.9,10.0,30.25,NNW,340,9.0,9.0,77,0.00,,CLR,0.00,VWS V14.01,2013-04-01 07:55:00,
2013-04-01 03:00:00,15.9,10.0,30.26,NW,324,5.0,6.0,77,0.00,,CLR,0.00,VWS V14.01,2013-04-01 08:00:00,
2013-04-01 03:05:00,15.7,9.8,30.26,NNW,340,6.0,6.0,77,0.00,,CLR,0.00,VWS V14.01,2013-04-01 08:05:00,
2013-04-01 03:10:00,15.6,9.7,30.26,NNW,333,6.0,6.0,77,0.00,,CLR,0.00,VWS V14.01,2013-04-01 08:10:00,
2013-04-01 03:15:00,15.5,9.6,30.26,NNW,336,7.0,8.0,77,0.00,,CLR,0.00,VWS V14.01,2013-04-01 08:15:00,
2013-04-01 03:20:00,15.5,9.6,30.26,NW,315,5.0,6.0,77,0.00,,CLR,0.00,VWS V14.01,2013-04-01 08:20:00,
2013-04-01 03:25:00,15.3,9.4,30.25,NW,312,6.0,7.0,77,0.00,,CLR,0.00,VWS V14.01,2013-04-01 08:25:00,
2013-04-01 03:26:00,15.4,9.5,30.25,NW,325,7.0,7.0,77,0.00,,CLR,0.00,VWS V14.01,2013-04-01 08:26:00,
2013-04-01 03:30:00,15.3,9.4,30.26,NW,307,6.0,6.0,77,0.00,,CLR,0.00,VWS V14.01,2013-04-01 08:30:00,
2013-04-01 03:31:00,15.3,9.4,30.26,WNW,302,7.0,8.0,77,0.00,,CLR,0.00,VWS V14.01,2013-04-01 08:31:00,
2013-04-01 03:35:00,15.2,9.3,30.26,NNW,345,7.0,8.0,77,0.00,,CLR,0.00,VWS V14.01,2013-04-01 08:35:00,
2013-04-01 03:36:00,15.3,9.4,30.26,NW,311,4.0,4.0,77,0.00,,CLR,0.00,VWS V14.01,2013-04-01 08:36:00,
2013-04-01 03:40:00,15.2,9.3,30.26,WNW,300,4.0,6.0,77,0.00,,CLR,0.00,VWS V14.01,2013-04-01 08:40:00,
2013-04-01 03:41:00,15.2,9.3,30.26,WNW,299,5.0,10.0,77,0.00,,CLR,0.00,VWS V14.01,2013-04-01 08:41:00,
2013-04-01 03:45:00,15.2,9.3,30.26,NNW,336,8.0,10.0,77,0.00,,CLR,0.00,VWS V14.01,2013-04-01 08:45:00,
2013-04-01 03:47:00,15.1,9.2,30.26,NW,325,3.0,5.0,77,0.00,,CLR,0.00,VWS V14.01,2013-04-01 08:47:00,
2013-04-01 03:50:00,15.2,9.3,30.26,WNW,286,7.0,7.0,77,0.00,,CLR,0.00,VWS V14.01,2013-04-01 08:50:00,
2013-04-01 03:52:00,15.2,9.3,30.26,WNW,294,12.0,13.0,77,0.00,,CLR,0.00,VWS V14.01,2013-04-01 08:52:00,
2013-04-01 03:55:00,15.1,9.2,30.26,NW,309,6.0,9.0,77,0.00,,CLR,0.00,VWS V14.01,2013-04-01 08:55:00,
2013-04-01 03:57:00,15.1,9.2,30.26,NW,308,9.0,11.0,77,0.00,,CLR,0.00,VWS V14.01,2013-04-01 08:57:00,
2013-04-01 04:00:00,15.1,9.2,30.26,NW,324,5.0,6.0,77,0.00,,CLR,0.00,VWS V14.01,2013-04-01 09:00:00,
2013-04-01 04:02:00,15.0,9.1,30.26,NW,311,7.0,7.0,77,0.00,,CLR,0.00,VWS V14.01,2013-04-01 09:02:00,
2013-04-01 04:05:00,15.1,9.2,30.27,NW,311,9.0,9.0,77,0.00,,CLR,0.00,VWS V14.01,2013-04-01 09:05:00,
2013-04-01 04:07:00,15.1,9.2,30.27,WNW,296,6.0,6.0,77,0.00,,CLR,0.00,VWS V14.01,2013-04-01 09:07:00,
2013-04-01 04:10:00,15.0,9.1,30.27,NW,308,5.0,6.0,77,0.00,,CLR,0.00,VWS V14.01,2013-04-01 09:10:00,
2013-04-01 04:12:00,15.1,9.2,30.27,NW,313,4.0,9.0,77,0.00,,CLR,0.00,VWS V14.01,2013-04-01 09:12:00,
2013-04-01 04:15:00,15.1,9.2,30.27,NW,313,4.0,10.0,77,0.00,,CLR,0.00,VWS V14.01,2013-04-01 09:15:00,
2013-04-01 04:18:00,15.1,9.2,30.27,NW,309,6.0,7.0,77,0.00,,CLR,0.00,VWS V14.01,2013-04-01 09:18:00,
2013-04-01 04:20:00,15.0,9.1,30.27,NW,321,6.0,9.0,77,0.00,,CLR,0.00,VWS V14.01,2013-04-01 09:20:00,
2013-04-01 04:23:00,15.1,9.2,30.28,WNW,303,8.0,9.0,77,0.00,,CLR,0.00,VWS V14.01,2013-04-01 09:23:00,
2013-04-01 04:25:00,15.0,9.1,30.28,NW,317,5.0,5.0,77,0.00,,CLR,0.00,VWS V14.01,2013-04-01 09:25:00,
2013-04-01 04:28:00,15.0,9.1,30.28,NW,305,5.0,5.0,77,0.00,,CLR,0.00,VWS V14.01,2013-04-01 09:28:00,
2013-04-01 04:30:00,14.9,9.0,30.28,West,264,5.0,6.0,77,0.00,,CLR,0.00,VWS V14.01,2013-04-01 09:30:00,
2013-04-01 04:33:00,14.9,9.0,30.28,WNW,282,6.0,6.0,77,0.00,,CLR,0.00,VWS V14.01,2013-04-01 09:33:00,
2013-04-01 04:35:00,14.8,8.9,30.28,NW,317,8.0,9.0,77,0.00,,CLR,0.00,VWS V14.01,2013-04-01 09:35:00,
2013-04-01 04:38:00,14.8,8.9,30.28,NW,316,5.0,6.0,77,0.00,,CLR,0.00,VWS V14.01,2013-04-01 09:38:00,
2013-04-01 04:40:00,14.6,9.0,30.28,NW,320,2.0,4.0,78,0.00,,CLR,0.00,VWS V14.01,2013-04-01 09:40:00,
2013-04-01 04:43:00,14.6,9.0,30.28,WNW,300,4.0,4.0,78,0.00,,CLR,0.00,VWS V14.01,2013-04-01 09:43:00,
2013-04-01 04:45:00,14.4,8.8,30.28,NW,306,5.0,7.0,78,0.00,,CLR,0.00,VWS V14.01,2013-04-01 09:45:00,
2013-04-01 04:48:00,14.4,8.8,30.28,NW,304,8.0,10.0,78,0.00,,CLR,0.00,VWS V14.01,2013-04-01 09:48:00,
2013-04-01 04:50:00,14.4,8.8,30.28,NW,313,5.0,5.0,78,0.00,,CLR,0.00,VWS V14.01,2013-04-01 09:50:00,
2013-04-01 04:53:00,14.4,8.8,30.28,NW,317,2.0,4.0,78,0.00,,CLR,0.00,VWS V14.01,2013-04-01 09:53:00,
2013-04-01 04:55:00,14.3,8.7,30.28,NW,321,6.0,8.0,78,0.00,,CLR,0.00,VWS V14.01,2013-04-01 09:55:00,
2013-04-01 04:58:00,14.3,8.7,30.28,NNW,328,8.0,8.0,78,0.00,,CLR,0.00,VWS V14.01,2013-04-01 09:58:00,
2013-04-01 05:00:00,14.2,8.6,30.28,NW,308,6.0,9.0,78,0.00,,CLR,0.00,VWS V14.01,2013-04-01 10:00:00,
2013-04-01 05:03:00,14.3,8.7,30.28,NW,319,6.0,9.0,78,0.00,,CLR,0.00,VWS V14.01,2013-04-01 10:03:00,
2013-04-01 05:05:00,14.2,8.6,30.29,NW,313,7.0,7.0,78,0.00,,CLR,0.00,VWS V14.01,2013-04-01 10:05:00,
2013-04-01 05:08:00,14.2,8.6,30.29,WNW,303,2.0,5.0,78,0.00,,CLR,0.00,VWS V14.01,2013-04-01 10:08:00,
2013-04-01 05:10:00,14.2,8.6,30.29,NW,307,4.0,5.0,78,0.00,,CLR,0.00,VWS V14.01,2013-04-01 10:10:00,
2013-04-01 05:13:00,14.2,8.6,30.29,NW,315,4.0,5.0,78,0.00,,CLR,0.00,VWS V14.01,2013-04-01 10:13:00,
2013-04-01 05:15:00,14.1,8.5,30.29,NNW,333,5.0,5.0,78,0.00,,CLR,0.00,VWS V14.01,2013-04-01 10:15:00,
2013-04-01 05:18:00,14.1,8.5,30.29,NNW,333,5.0,5.0,78,0.00,,CLR,0.00,VWS V14.01,2013-04-01 10:18:00,
2013-04-01 05:20:00,14.0,8.4,30.30,NNW,328,6.0,7.0,78,0.00,,CLR,0.00,VWS V14.01,2013-04-01 10:20:00,
2013-04-01 05:23:00,14.0,8.4,30.30,NNW,333,7.0,7.0,78,0.00,,CLR,0.00,VWS V14.01,2013-04-01 10:23:00,
2013-04-01 05:25:00,14.0,8.4,30.30,NW,304,3.0,5.0,78,0.00,,CLR,0.00,VWS V14.01,2013-04-01 10:25:00,
2013-04-01 05:28:00,14.0,8.4,30.30,NW,304,3.0,5.0,78,0.00,,CLR,0.00,VWS V14.01,2013-04-01 10:28:00,
2013-04-01 05:30:00,14.0,8.4,30.30,WNW,300,9.0,9.0,78,0.00,,CLR,0.00,VWS V14.01,2013-04-01 10:30:00,
2013-04-01 05:33:00,14.0,8.4,30.30,WNW,300,9.0,9.0,78,0.00,,CLR,0.00,VWS V14.01,2013-04-01 10:33:00,
2013-04-01 05:35:00,13.9,8.3,30.30,NW,311,8.0,8.0,78,0.00,,CLR,0.00,VWS V14.01,2013-04-01 10:35:00,
2013-04-01 05:38:00,13.9,8.3,30.30,NW,311,8.0,8.0,78,0.00,,CLR,0.00,VWS V14.01,2013-04-01 10:38:00,
2013-04-01 05:40:00,13.9,8.3,30.30,NW,321,4.0,4.0,78,0.00,,CLR,0.00,VWS V14.01,2013-04-01 10:40:00,
2013-04-01 05:43:00,13.9,8.3,30.30,NW,321,4.0,4.0,78,0.00,,CLR,0.00,VWS V14.01,2013-04-01 10:43:00,
2013-04-01 05:45:00,13.8,8.2,30.30,NW,323,5.0,5.0,78,0.00,,CLR,0.00,VWS V14.01,2013-04-01 10:45:00,
2013-04-01 05:48:00,13.8,8.2,30.30,NW,323,5.0,5.0,78,0.00,,CLR,0.00,VWS V14.01,2013-04-01 10:48:00,
2013-04-01 05:50:00,13.9,8.3,30.30,NW,319,3.0,6.0,78,0.00,,CLR,0.00,VWS V14.01,2013-04-01 10:50:00,
2013-04-01 05:53:00,13.9,8.3,30.30,NW,319,3.0,6.0,78,0.00,,CLR,0.00,VWS V14.01,2013-04-01 10:53:00,
2013-04-01 05:55:00,13.8,8.2,30.31,WNW,303,5.0,5.0,78,0.00,,CLR,0.00,VWS V14.01,2013-04-01 10:55:00,
2013-04-01 05:58:00,13.8,8.2,30.31,WNW,300,6.0,6.0,78,0.00,,CLR,0.00,VWS V14.01,2013-04-01 10:58:00,
2013-04-01 06:00:00,13.7,8.1,30.31,WNW,288,5.0,7.0,78,0.00,,CLR,0.00,VWS V14.01,2013-04-01 11:00:00,
2013-04-01 06:03:00,13.7,8.1,30.31,WNW,287,5.0,7.0,78,0.00,,CLR,0.00,VWS V14.01,2013-04-01 11:03:00,
2013-04-01 06:05:00,13.7,8.1,30.31,NW,309,9.0,9.0,78,0.00,,CLR,0.00,VWS V14.01,2013-04-01 11:05:00,
2013-04-01 06:08:00,13.7,8.1,30.31,NW,309,9.0,9.0,78,0.00,,CLR,0.00,VWS V14.01,2013-04-01 11:08:00,
2013-04-01 06:10:00,13.6,8.0,30.31,NW,314,3.0,5.0,78,0.00,,CLR,0.00,VWS V14.01,2013-04-01 11:10:00,
2013-04-01 06:13:00,13.6,8.0,30.31,NW,314,3.0,5.0,78,0.00,,CLR,0.00,VWS V14.01,2013-04-01 11:13:00,
2013-04-01 06:15:00,13.6,8.0,30.31,NW,310,3.0,8.0,78,0.00,,CLR,0.00,VWS V14.01,2013-04-01 11:15:00,
2013-04-01 06:18:00,13.6,8.0,30.31,NW,310,3.0,8.0,78,0.00,,CLR,0.00,VWS V14.01,2013-04-01 11:18:00,
2013-04-01 06:20:00,13.6,8.0,30.32,NNW,327,4.0,7.0,78,0.00,,CLR,0.00,VWS V14.01,2013-04-01 11:20:00,
2013-04-01 06:23:00,13.6,7.7,30.31,NW,325,4.0,5.0,77,0.00,,CLR,0.00,VWS V14.01,2013-04-01 11:23:00,
2013-04-01 06:25:00,13.5,7.7,30.31,NW,317,4.0,10.0,77,0.00,,CLR,0.00,VWS V14.01,2013-04-01 11:25:00,
2013-04-01 06:29:00,13.5,7.7,30.31,NW,308,10.0,10.0,77,0.00,,CLR,0.00,VWS V14.01,2013-04-01 11:29:00,
2013-04-01 06:30:00,13.5,7.7,30.32,NW,317,6.0,7.0,77,0.00,,CLR,0.00,VWS V14.01,2013-04-01 11:30:00,
2013-04-01 06:34:00,13.4,7.6,30.32,NW,315,6.0,7.0,77,0.00,,CLR,0.00,VWS V14.01,2013-04-01 11:34:00,
2013-04-01 06:35:00,13.4,7.8,30.32,NW,318,10.0,10.0,78,0.00,,CLR,0.00,VWS V14.01,2013-04-01 11:35:00,
2013-04-01 06:39:00,13.3,7.7,30.32,WNW,302,10.0,11.0,78,0.00,,CLR,0.00,VWS V14.01,2013-04-01 11:39:00,
2013-04-01 06:40:00,13.4,7.8,30.32,NW,319,3.0,5.0,78,0.00,,CLR,0.00,VWS V14.01,2013-04-01 11:40:00,
2013-04-01 06:44:00,13.4,7.8,30.32,NW,312,7.0,7.0,78,0.00,,CLR,0.00,VWS V14.01,2013-04-01 11:44:00,
2013-04-01 06:45:00,13.4,7.6,30.32,NW,315,9.0,11.0,77,0.00,,CLR,0.00,VWS V14.01,2013-04-01 11:45:00,
2013-04-01 06:49:00,13.4,7.6,30.32,NNW,330,6.0,9.0,77,0.00,,CLR,0.00,VWS V14.01,2013-04-01 11:49:00,
2013-04-01 06:50:00,13.4,7.8,30.32,NW,319,7.0,7.0,78,0.00,,CLR,0.00,VWS V14.01,2013-04-01 11:50:00,
2013-04-01 06:54:00,13.4,7.8,30.33,WNW,288,5.0,5.0,78,0.00,,CLR,0.00,VWS V14.01,2013-04-01 11:54:00,
2013-04-01 06:55:00,13.3,7.4,30.33,WNW,300,10.0,10.0,77,0.00,,CLR,0.00,VWS V14.01,2013-04-01 11:55:00,
2013-04-01 06:59:00,13.3,7.4,30.33,WNW,290,3.0,7.0,77,0.00,,CLR,0.00,VWS V14.01,2013-04-01 11:59:00,
2013-04-01 07:00:00,13.2,7.4,30.33,NW,306,6.0,6.0,77,0.00,,CLR,0.00,VWS V14.01,2013-04-01 12:00:00,
2013-04-01 07:04:00,13.2,7.3,30.33,NNW,337,5.0,6.0,77,0.00,,CLR,0.00,VWS V14.01,2013-04-01 12:04:00,
2013-04-01 07:05:00,13.2,7.6,30.33,WSW,252,7.0,7.0,78,0.00,,CLR,0.00,VWS V14.01,2013-04-01 12:05:00,
2013-04-01 07:09:00,13.2,7.6,30.34,WNW,290,4.0,5.0,78,0.00,,CLR,0.00,VWS V14.01,2013-04-01 12:09:00,
2013-04-01 07:10:00,13.2,7.6,30.34,WNW,301,3.0,6.0,78,0.00,,CLR,0.00,VWS V14.01,2013-04-01 12:10:00,
2013-04-01 07:14:00,13.2,7.6,30.34,NW,311,5.0,5.0,78,0.00,,CLR,0.00,VWS V14.01,2013-04-01 12:14:00,
2013-04-01 07:15:00,13.2,7.6,30.34,WNW,295,3.0,4.0,78,0.00,,CLR,0.00,VWS V14.01,2013-04-01 12:15:00,
2013-04-01 07:19:00,13.2,7.6,30.34,WNW,287,6.0,9.0,78,0.00,,CLR,0.00,VWS V14.01,2013-04-01 12:19:00,
2013-04-01 07:20:00,13.2,7.6,30.34,West,280,3.0,6.0,78,0.00,,CLR,0.00,VWS V14.01,2013-04-01 12:20:00,
2013-04-01 07:24:00,13.2,7.6,30.34,NW,307,7.0,8.0,78,0.00,,CLR,0.00,VWS V14.01,2013-04-01 12:24:00,
2013-04-01 07:25:00,13.2,7.6,30.34,NNW,327,5.0,5.0,78,0.00,,CLR,0.00,VWS V14.01,2013-04-01 12:25:00,
2013-04-01 07:29:00,13.2,7.6,30.34,WNW,303,5.0,7.0,78,0.00,,CLR,0.00,VWS V14.01,2013-04-01 12:29:00,
2013-04-01 07:30:00,13.2,7.6,30.34,NW,325,10.0,11.0,78,0.00,,CLR,0.00,VWS V14.01,2013-04-01 12:30:00,
2013-04-01 07:34:00,13.3,7.7,30.34,WNW,301,6.0,7.0,78,0.00,,CLR,0.00,VWS V14.01,2013-04-01 12:34:00,
2013-04-01 07:35:00,13.4,7.8,30.34,NW,304,7.0,7.0,78,0.00,,CLR,0.00,VWS V14.01,2013-04-01 12:35:00,
2013-04-01 07:39:00,13.3,7.7,30.34,NW,304,5.0,7.0,78,0.00,,CLR,0.00,VWS V14.01,2013-04-01 12:39:00,
2013-04-01 07:40:00,13.4,7.8,30.34,NW,319,9.0,12.0,78,0.00,,CLR,0.00,VWS V14.01,2013-04-01 12:40:00,
2013-04-01 07:44:00,13.4,7.6,30.34,NW,314,11.0,11.0,77,0.00,,CLR,0.00,VWS V14.01,2013-04-01 12:44:00,
2013-04-01 07:45:00,13.5,7.7,30.34,NW,308,7.0,7.0,77,0.00,,CLR,0.00,VWS V14.01,2013-04-01 12:45:00,
2013-04-01 07:49:00,13.6,7.7,30.35,NW,311,10.0,11.0,77,0.00,,CLR,0.00,VWS V14.01,2013-04-01 12:49:00,
2013-04-01 07:50:00,13.7,7.8,30.35,NW,309,6.0,10.0,77,0.00,,CLR,0.00,VWS V14.01,2013-04-01 12:50:00,
2013-04-01 07:55:00,13.7,7.8,30.35,NW,315,12.0,13.0,77,0.00,,CLR,0.00,VWS V14.01,2013-04-01 12:55:00,
2013-04-01 08:00:00,13.9,8.0,30.35,NW,311,5.0,9.0,77,0.00,,CLR,0.00,VWS V14.01,2013-04-01 13:00:00,
2013-04-01 08:05:00,14.1,8.2,30.36,NW,304,5.0,7.0,77,0.00,,CLR,0.00,VWS V14.01,2013-04-01 13:05:00,
2013-04-01 08:10:00,14.3,8.4,30.36,NW,310,5.0,9.0,77,0.00,,CLR,0.00,VWS V14.01,2013-04-01 13:10:00,
2013-04-01 08:15:00,14.4,8.5,30.36,NW,317,5.0,5.0,77,0.00,,CLR,0.00,VWS V14.01,2013-04-01 13:15:00,
2013-04-01 08:20:00,14.6,8.7,30.36,NW,317,6.0,6.0,77,0.00,,CLR,0.00,VWS V14.01,2013-04-01 13:20:00,
2013-04-01 08:25:00,14.9,8.7,30.36,NW,313,6.0,7.0,76,0.00,,CLR,0.00,VWS V14.01,2013-04-01 13:25:00,
2013-04-01 08:30:00,15.1,8.9,30.36,WNW,284,4.0,11.0,76,0.00,,CLR,0.00,VWS V14.01,2013-04-01 13:30:00,
2013-04-01 08:35:00,15.4,9.2,30.36,NW,321,5.0,7.0,76,0.00,,CLR,0.00,VWS V14.01,2013-04-01 13:35:00,
2013-04-01 08:40:00,15.8,9.3,30.36,NW,319,10.0,13.0,75,0.00,,CLR,0.00,VWS V14.01,2013-04-01 13:40:00,
2013-04-01 08:45:00,15.9,9.4,30.37,NNW,335,12.0,13.0,75,0.00,,CLR,0.00,VWS V14.01,2013-04-01 13:45:00,
2013-04-01 08:50:00,16.1,9.3,30.37,WNW,295,9.0,10.0,74,0.00,,CLR,0.00,VWS V14.01,2013-04-01 13:50:00,
2013-04-01 08:55:00,16.2,9.4,30.37,NW,323,10.0,11.0,74,0.00,,CLR,0.00,VWS V14.01,2013-04-01 13:55:00,
2013-04-01 09:00:00,16.3,9.5,30.37,NNW,330,5.0,7.0,74,0.00,,CLR,0.00,VWS V14.01,2013-04-01 14:00:00,
2013-04-01 09:05:00,16.7,9.6,30.37,NNW,334,12.0,13.0,73,0.00,,CLR,0.00,VWS V14.01,2013-04-01 14:05:00,
2013-04-01 09:10:00,17.2,10.1,30.37,WNW,303,5.0,5.0,73,0.00,,CLR,0.00,VWS V14.01,2013-04-01 14:10:00,
2013-04-01 09:11:00,17.0,9.6,30.37,NW,309,4.0,5.0,72,0.00,,CLR,0.00,VWS V14.01,2013-04-01 14:11:00,
2013-04-01 09:15:00,17.5,10.0,30.37,West,274,10.0,10.0,72,0.00,,CLR,0.00,VWS V14.01,2013-04-01 14:15:00,
2013-04-01 09:16:00,17.3,9.8,30.37,WNW,303,5.0,6.0,72,0.00,,CLR,0.00,VWS V14.01,2013-04-01 14:16:00,
2013-04-01 09:20:00,17.5,9.7,30.37,West,279,6.0,7.0,71,0.00,,CLR,0.00,VWS V14.01,2013-04-01 14:20:00,
2013-04-01 09:21:00,17.6,10.1,30.37,WNW,290,3.0,7.0,72,0.00,,CLR,0.00,VWS V14.01,2013-04-01 14:21:00,
2013-04-01 09:25:00,17.5,9.7,30.37,NW,320,9.0,9.0,71,0.00,,CLR,0.00,VWS V14.01,2013-04-01 14:25:00,
2013-04-01 09:27:00,17.5,9.7,30.38,West,271,11.0,11.0,71,0.00,,CLR,0.00,VWS V14.01,2013-04-01 14:27:00,
2013-04-01 09:30:00,17.3,9.5,30.38,NW,313,8.0,11.0,71,0.00,,CLR,0.00,VWS V14.01,2013-04-01 14:30:00,
2013-04-01 09:32:00,17.3,9.5,30.38,WNW,295,5.0,11.0,71,0.00,,CLR,0.00,VWS V14.01,2013-04-01 14:32:00,
2013-04-01 09:35:00,17.5,9.7,30.37,NW,304,6.0,7.0,71,0.00,,CLR,0.00,VWS V14.01,2013-04-01 14:35:00,
2013-04-01 09:37:00,17.5,9.7,30.37,NW,312,7.0,10.0,71,0.00,,CLR,0.00,VWS V14.01,2013-04-01 14:37:00,
2013-04-01 09:40:00,17.9,10.1,30.37,NNW,327,7.0,10.0,71,0.00,,CLR,0.00,VWS V14.01,2013-04-01 14:40:00,
2013-04-01 09:42:00,17.9,10.1,30.37,NNW,330,9.0,12.0,71,0.00,,CLR,0.00,VWS V14.01,2013-04-01 14:42:00,
2013-04-01 09:45:00,18.2,10.4,30.38,NW,317,6.0,9.0,71,0.00,,CLR,0.00,VWS V14.01,2013-04-01 14:45:00,
2013-04-01 09:47:00,18.1,10.3,30.38,WNW,302,5.0,5.0,71,0.00,,CLR,0.00,VWS V14.01,2013-04-01 14:47:00,
2013-04-01 09:50:00,18.3,9.9,30.37,NNW,335,9.0,9.0,69,0.00,,CLR,0.00,VWS V14.01,2013-04-01 14:50:00,
2013-04-01 09:52:00,18.3,9.9,30.37,WNW,294,4.0,9.0,69,0.00,,CLR,0.00,VWS V14.01,2013-04-01 14:52:00,
2013-04-01 09:55:00,18.6,10.5,30.37,WNW,301,6.0,7.0,70,0.00,,CLR,0.00,VWS V14.01,2013-04-01 14:55:00,
2013-04-01 09:57:00,18.5,10.4,30.37,West,278,7.0,9.0,70,0.00,,CLR,0.00,VWS V14.01,2013-04-01 14:57:00,
2013-04-01 10:00:00,18.9,10.4,30.37,NW,313,5.0,6.0,69,0.00,,CLR,0.00,VWS V14.01,2013-04-01 15:00:00,
2013-04-01 10:02:00,18.9,10.4,30.37,WNW,300,9.0,9.0,69,0.00,,CLR,0.00,VWS V14.01,2013-04-01 15:02:00,
2013-04-01 10:05:00,19.3,10.8,30.38,North,349,10.0,11.0,69,0.00,,CLR,0.00,VWS V14.01,2013-04-01 15:05:00,
2013-04-01 10:07:00,19.2,10.7,30.38,WNW,297,5.0,5.0,69,0.00,,CLR,0.00,VWS V14.01,2013-04-01 15:07:00,
2013-04-01 10:10:00,19.7,11.2,30.37,NNW,335,15.0,15.0,69,0.00,,CLR,0.00,VWS V14.01,2013-04-01 15:10:00,
2013-04-01 10:13:00,19.7,11.2,30.37,WNW,303,9.0,10.0,69,0.00,,CLR,0.00,VWS V14.01,2013-04-01 15:13:00,
2013-04-01 10:15:00,19.9,11.1,30.37,NW,321,7.0,10.0,68,0.00,,CLR,0.00,VWS V14.01,2013-04-01 15:15:00,
2013-04-01 10:18:00,19.9,11.1,30.37,NW,321,5.0,11.0,68,0.00,,CLR,0.00,VWS V14.01,2013-04-01 15:18:00,
2013-04-01 10:20:00,20.1,11.6,30.37,NNW,337,12.0,12.0,69,0.00,,CLR,0.00,VWS V14.01,2013-04-01 15:20:00,
2013-04-01 10:23:00,20.1,11.6,30.37,NW,319,9.0,9.0,69,0.00,,CLR,0.00,VWS V14.01,2013-04-01 15:23:00,
2013-04-01 10:25:00,20.4,11.9,30.37,NW,318,6.0,8.0,69,0.00,,CLR,0.00,VWS V14.01,2013-04-01 15:25:00,
2013-04-01 10:28:00,20.4,11.9,30.37,NW,321,6.0,8.0,69,0.00,,CLR,0.00,VWS V14.01,2013-04-01 15:28:00,
2013-04-01 10:30:00,20.5,11.3,30.37,WNW,291,10.0,10.0,67,0.00,,CLR,0.00,VWS V14.01,2013-04-01 15:30:00,
2013-04-01 10:33:00,20.6,11.4,30.37,NW,305,11.0,11.0,67,0.00,,CLR,0.00,VWS V14.01,2013-04-01 15:33:00,
2013-04-01 10:35:00,20.6,11.4,30.37,NW,323,8.0,10.0,67,0.00,,CLR,0.00,VWS V14.01,2013-04-01 15:35:00,
2013-04-01 10:38:00,20.6,11.7,30.37,NW,324,6.0,11.0,68,0.00,,CLR,0.00,VWS V14.01,2013-04-01 15:38:00,
2013-04-01 10:40:00,20.9,11.3,30.37,NW,311,5.0,10.0,66,0.00,,CLR,0.00,VWS V14.01,2013-04-01 15:40:00,
2013-04-01 10:43:00,20.9,11.3,30.37,WNW,295,6.0,11.0,66,0.00,,CLR,0.00,VWS V14.01,2013-04-01 15:43:00,
2013-04-01 10:45:00,20.9,12.0,30.37,NNW,336,10.0,11.0,68,0.00,,CLR,0.00,VWS V14.01,2013-04-01 15:45:00,
2013-04-01 10:48:00,20.9,11.3,30.37,NW,314,11.0,11.0,66,0.00,,CLR,0.00,VWS V14.01,2013-04-01 15:48:00,
2013-04-01 10:50:00,21.6,12.4,30.37,NW,309,10.0,11.0,67,0.00,,CLR,0.00,VWS V14.01,2013-04-01 15:50:00,
2013-04-01 10:53:00,21.6,12.4,30.37,NW,309,10.0,11.0,67,0.00,,CLR,0.00,VWS V14.01,2013-04-01 15:53:00,
2013-04-01 10:55:00,21.8,11.5,30.37,NNW,331,11.0,13.0,64,0.00,,CLR,0.00,VWS V14.01,2013-04-01 15:55:00,
2013-04-01 10:58:00,21.8,11.5,30.37,NNW,331,11.0,13.0,64,0.00,,CLR,0.00,VWS V14.01,2013-04-01 15:58:00,
2013-04-01 11:00:00,22.0,12.7,30.37,NNW,334,11.0,11.0,67,0.00,,CLR,0.00,VWS V14.01,2013-04-01 16:00:00,
2013-04-01 11:03:00,22.0,12.7,30.37,NNW,334,11.0,11.0,67,0.00,,CLR,0.00,VWS V14.01,2013-04-01 16:03:00,
2013-04-01 11:05:00,22.4,12.4,30.37,NNW,343,7.0,12.0,65,0.00,,CLR,0.00,VWS V14.01,2013-04-01 16:05:00,
2013-04-01 11:08:00,22.4,12.4,30.37,NNW,343,7.0,12.0,65,0.00,,CLR,0.00,VWS V14.01,2013-04-01 16:08:00,
2013-04-01 11:10:00,22.7,13.1,30.37,NNW,332,7.0,11.0,66,0.00,,CLR,0.00,VWS V14.01,2013-04-01 16:10:00,
2013-04-01 11:13:00,22.7,13.1,30.37,NNW,331,7.0,11.0,66,0.00,,CLR,0.00,VWS V14.01,2013-04-01 16:13:00,
2013-04-01 11:15:00,22.9,11.8,30.37,NW,310,11.0,11.0,62,0.00,,CLR,0.00,VWS V14.01,2013-04-01 16:15:00,
2013-04-01 11:18:00,22.9,11.8,30.37,NNW,333,10.0,11.0,62,0.00,,CLR,0.00,VWS V14.01,2013-04-01 16:18:00,
2013-04-01 11:20:00,22.7,13.1,30.38,NW,312,13.0,14.0,66,0.00,,CLR,0.00,VWS V14.01,2013-04-01 16:20:00,
2013-04-01 11:23:00,22.8,13.2,30.38,NNW,338,10.0,10.0,66,0.00,,CLR,0.00,VWS V14.01,2013-04-01 16:23:00,
2013-04-01 11:25:00,22.8,12.5,30.38,NW,309,11.0,13.0,64,0.00,,CLR,0.00,VWS V14.01,2013-04-01 16:25:00,
2013-04-01 11:29:00,22.8,12.5,30.38,NW,318,10.0,11.0,64,0.00,,CLR,0.00,VWS V14.01,2013-04-01 16:29:00,
2013-04-01 11:30:00,22.8,11.8,30.38,NW,314,10.0,13.0,62,0.00,,CLR,0.00,VWS V14.01,2013-04-01 16:30:00,
2013-04-01 11:34:00,22.8,12.1,30.37,NNW,329,6.0,7.0,63,0.00,,CLR,0.00,VWS V14.01,2013-04-01 16:34:00,
2013-04-01 11:35:00,23.3,12.9,30.37,NNW,340,11.0,11.0,64,0.00,,CLR,0.00,VWS V14.01,2013-04-01 16:35:00,
2013-04-01 11:39:00,23.4,12.7,30.37,NNW,333,12.0,15.0,63,0.00,,CLR,0.00,VWS V14.01,2013-04-01 16:39:00,
2013-04-01 11:40:00,23.6,12.9,30.37,NW,325,11.0,11.0,63,0.00,,CLR,0.00,VWS V14.01,2013-04-01 16:40:00,
2013-04-01 11:44:00,23.6,12.5,30.37,NW,313,9.0,11.0,62,0.00,,CLR,0.00,VWS V14.01,2013-04-01 16:44:00,
2013-04-01 11:45:00,23.8,13.4,30.38,WNW,285,10.0,11.0,64,0.00,,CLR,0.00,VWS V14.01,2013-04-01 16:45:00,
2013-04-01 11:49:00,23.8,12.7,30.38,West,275,10.0,11.0,62,0.00,,CLR,0.00,VWS V14.01,2013-04-01 16:49:00,
2013-04-01 11:50:00,24.0,12.5,30.37,NW,304,7.0,8.0,61,0.00,,CLR,0.00,VWS V14.01,2013-04-01 16:50:00,
2013-04-01 11:54:00,24.0,12.9,30.37,NNW,338,11.0,12.0,62,0.00,,CLR,0.00,VWS V14.01,2013-04-01 16:54:00,
2013-04-01 11:55:00,24.3,13.5,30.37,North,355,4.0,9.0,63,0.00,,CLR,0.00,VWS V14.01,2013-04-01 16:55:00,
2013-04-01 11:59:00,24.2,13.1,30.37,NW,321,10.0,10.0,62,0.00,,CLR,0.00,VWS V14.01,2013-04-01 16:59:00,
2013-04-01 12:00:00,24.5,14.1,30.37,NW,311,6.0,7.0,64,0.00,,CLR,0.00,VWS V14.01,2013-04-01 17:00:00,
2013-04-01 12:04:00,24.5,13.0,30.37,NW,323,10.0,12.0,61,0.00,,CLR,0.00,VWS V14.01,2013-04-01 17:04:00,
2013-04-01 12:05:00,24.5,13.7,30.38,NW,309,6.0,7.0,63,0.00,,CLR,0.00,VWS V14.01,2013-04-01 17:05:00,
2013-04-01 12:09:00,24.5,13.4,30.38,WNW,296,5.0,7.0,62,0.00,,CLR,0.00,VWS V14.01,2013-04-01 17:09:00,
2013-04-01 12:10:00,24.8,14.4,30.38,NW,309,8.0,10.0,64,0.00,,CLR,0.00,VWS V14.01,2013-04-01 17:10:00,
2013-04-01 12:14:00,24.8,12.9,30.38,WNW,283,4.0,7.0,60,0.00,,CLR,0.00,VWS V14.01,2013-04-01 17:14:00,
2013-04-01 12:15:00,24.7,13.2,30.38,WNW,294,7.0,12.0,61,0.00,,CLR,0.00,VWS V14.01,2013-04-01 17:15:00,
2013-04-01 12:19:00,24.7,12.8,30.38,WNW,296,7.0,11.0,60,0.00,,CLR,0.00,VWS V14.01,2013-04-01 17:19:00,
2013-04-01 12:20:00,24.8,12.5,30.38,WNW,284,6.0,9.0,59,0.00,,CLR,0.00,VWS V14.01,2013-04-01 17:20:00,
2013-04-01 12:25:00,24.9,13.7,30.38,NW,319,5.0,10.0,62,0.00,,CLR,0.00,VWS V14.01,2013-04-01 17:25:00,
2013-04-01 12:30:00,25.2,12.9,30.38,WNW,284,6.0,9.0,59,0.00,,CLR,0.00,VWS V14.01,2013-04-01 17:30:00,
2013-04-01 12:35:00,25.4,13.5,30.38,NNW,328,8.0,9.0,60,0.00,,CLR,0.00,VWS V14.01,2013-04-01 17:35:00,
2013-04-01 12:40:00,25.5,13.2,30.38,NW,304,6.0,6.0,59,0.00,,CLR,0.00,VWS V14.01,2013-04-01 17:40:00,
2013-04-01 12:45:00,25.8,13.9,30.38,WNW,290,9.0,10.0,60,0.00,,CLR,0.00,VWS V14.01,2013-04-01 17:45:00,
2013-04-01 12:50:00,26.2,13.4,30.38,WNW,285,4.0,5.0,58,0.00,,CLR,0.00,VWS V14.01,2013-04-01 17:50:00,
2013-04-01 12:55:00,26.2,13.1,30.37,NW,310,5.0,7.0,57,0.00,,CLR,0.00,VWS V14.01,2013-04-01 17:55:00,
2013-04-01 13:00:00,26.3,14.7,30.37,NW,318,8.0,8.0,61,0.00,,CLR,0.00,VWS V14.01,2013-04-01 18:00:00,
2013-04-01 13:05:00,26.7,13.5,30.37,West,276,11.0,11.0,57,0.00,,CLR,0.00,VWS V14.01,2013-04-01 18:05:00,
2013-04-01 13:10:00,26.7,13.9,30.37,NW,304,9.0,12.0,58,0.00,,CLR,0.00,VWS V14.01,2013-04-01 18:10:00,
2013-04-01 13:15:00,27.0,14.6,30.37,WNW,303,1.0,5.0,59,0.00,,CLR,0.00,VWS V14.01,2013-04-01 18:15:00,
2013-04-01 13:20:00,27.1,14.3,30.36,NW,312,10.0,10.0,58,0.00,,CLR,0.00,VWS V14.01,2013-04-01 18:20:00,
2013-04-01 13:25:00,27.2,13.6,30.36,WNW,302,11.0,13.0,56,0.00,,CLR,0.00,VWS V14.01,2013-04-01 18:25:00,
2013-04-01 13:30:00,27.4,15.0,30.36,NW,317,8.0,8.0,59,0.00,,CLR,0.00,VWS V14.01,2013-04-01 18:30:00,
2013-04-01 13:35:00,27.5,13.5,30.36,WNW,288,7.0,10.0,55,0.00,,CLR,0.00,VWS V14.01,2013-04-01 18:35:00,
2013-04-01 13:40:00,27.8,14.6,30.36,NW,310,6.0,6.0,57,0.00,,CLR,0.00,VWS V14.01,2013-04-01 18:40:00,
2013-04-01 13:45:00,28.0,14.3,30.36,WNW,290,11.0,11.0,56,0.00,,CLR,0.00,VWS V14.01,2013-04-01 18:45:00,
2013-04-01 13:50:00,27.9,13.8,30.36,NNW,331,6.0,10.0,55,0.00,,CLR,0.00,VWS V14.01,2013-04-01 18:50:00,
2013-04-01 13:55:00,28.1,14.4,30.36,NW,309,6.0,10.0,56,0.00,,CLR,0.00,VWS V14.01,2013-04-01 18:55:00,
2013-04-01 14:00:00,28.1,13.6,30.35,NNW,333,15.0,15.0,54,0.00,,CLR,0.00,VWS V14.01,2013-04-01 19:00:00,
2013-04-01 14:05:00,28.4,14.7,30.36,WNW,300,6.0,10.0,56,0.00,,CLR,0.00,VWS V14.01,2013-04-01 19:05:00,
2013-04-01 14:06:00,28.3,14.2,30.35,NNW,330,10.0,14.0,55,0.00,,CLR,0.00,VWS V14.01,2013-04-01 19:06:00,
2013-04-01 14:10:00,28.5,14.4,30.36,NW,305,6.0,12.0,55,0.00,,CLR,0.00,VWS V14.01,2013-04-01 19:10:00,
2013-04-01 14:11:00,28.5,14.4,30.36,West,281,8.0,9.0,55,0.00,,CLR,0.00,VWS V14.01,2013-04-01 19:11:00,
2013-04-01 14:15:00,28.8,14.7,30.36,NW,308,10.0,10.0,55,0.00,,CLR,0.00,VWS V14.01,2013-04-01 19:15:00,
2013-04-01 14:16:00,28.7,15.0,30.36,North,360,5.0,10.0,56,0.00,,CLR,0.00,VWS V14.01,2013-04-01 19:16:00,
2013-04-01 14:20:00,28.8,14.7,30.36,NW,326,10.0,12.0,55,0.00,,CLR,0.00,VWS V14.01,2013-04-01 19:20:00,
2013-04-01 14:21:00,28.8,14.3,30.36,WNW,303,10.0,10.0,54,0.00,,CLR,0.00,VWS V14.01,2013-04-01 19:21:00,
2013-04-01 14:25:00,28.8,14.3,30.36,NW,312,13.0,13.0,54,0.00,,CLR,0.00,VWS V14.01,2013-04-01 19:25:00,
2013-04-01 14:27:00,28.7,14.6,30.36,WNW,294,10.0,13.0,55,0.00,,CLR,0.00,VWS V14.01,2013-04-01 19:27:00,
2013-04-01 14:30:00,29.0,14.0,30.36,NW,306,4.0,5.0,53,0.00,,CLR,0.00,VWS V14.01,2013-04-01 19:30:00,
2013-04-01 14:32:00,28.9,14.8,30.35,NW,318,7.0,10.0,55,0.00,,CLR,0.00,VWS V14.01,2013-04-01 19:32:00,
2013-04-01 14:35:00,29.4,14.8,30.35,NW,305,13.0,13.0,54,0.00,,CLR,0.00,VWS V14.01,2013-04-01 19:35:00,
2013-04-01 14:37:00,29.3,14.7,30.35,NNW,329,11.0,11.0,54,0.00,,CLR,0.00,VWS V14.01,2013-04-01 19:37:00,
2013-04-01 14:40:00,29.8,14.8,30.35,NW,310,11.0,11.0,53,0.00,,CLR,0.00,VWS V14.01,2013-04-01 19:40:00,
2013-04-01 14:42:00,29.7,15.5,30.35,WNW,300,10.0,11.0,55,0.00,,CLR,0.00,VWS V14.01,2013-04-01 19:42:00,
2013-04-01 14:45:00,29.6,14.6,30.35,NNW,345,7.0,11.0,53,0.00,,CLR,0.00,VWS V14.01,2013-04-01 19:45:00,
2013-04-01 14:47:00,29.7,14.2,30.35,NW,311,10.0,10.0,52,0.00,,CLR,0.00,VWS V14.01,2013-04-01 19:47:00,
2013-04-01 14:50:00,29.5,14.5,30.35,NNW,327,6.0,9.0,53,0.00,,CLR,0.00,VWS V14.01,2013-04-01 19:50:00,
2013-04-01 14:52:00,29.5,14.9,30.35,NW,319,7.0,8.0,54,0.00,,CLR,0.00,VWS V14.01,2013-04-01 19:52:00,
2013-04-01 14:55:00,29.7,14.2,30.35,NW,323,11.0,11.0,52,0.00,,CLR,0.00,VWS V14.01,2013-04-01 19:55:00,
2013-04-01 14:57:00,29.7,14.2,30.35,NW,311,6.0,10.0,52,0.00,,CLR,0.00,VWS V14.01,2013-04-01 19:57:00,
2013-04-01 15:00:00,29.8,15.6,30.35,West,279,7.0,10.0,55,0.00,,CLR,0.00,VWS V14.01,2013-04-01 20:00:00,
2013-04-01 15:02:00,29.7,15.1,30.35,NNW,340,10.0,11.0,54,0.00,,CLR,0.00,VWS V14.01,2013-04-01 20:02:00,
2013-04-01 15:05:00,30.1,15.1,30.35,NW,317,13.0,13.0,53,0.00,,CLR,0.00,VWS V14.01,2013-04-01 20:05:00,
2013-04-01 15:07:00,30.0,15.4,30.35,West,277,5.0,5.0,54,0.00,,CLR,0.00,VWS V14.01,2013-04-01 20:07:00,
2013-04-01 15:10:00,30.3,15.2,30.35,WNW,299,9.0,11.0,53,0.00,,CLR,0.00,VWS V14.01,2013-04-01 20:10:00,
2013-04-01 15:12:00,30.3,15.2,30.35,NW,306,6.0,7.0,53,0.00,,CLR,0.00,VWS V14.01,2013-04-01 20:12:00,
2013-04-01 15:15:00,30.1,13.7,30.35,WNW,294,11.0,11.0,50,0.00,,CLR,0.00,VWS V14.01,2013-04-01 20:15:00,
2013-04-01 15:17:00,30.2,14.3,30.35,NW,315,12.0,12.0,51,0.00,,CLR,0.00,VWS V14.01,2013-04-01 20:17:00,
2013-04-01 15:20:00,30.4,14.9,30.35,West,276,7.0,9.0,52,0.00,,CLR,0.00,VWS V14.01,2013-04-01 20:20:00,
2013-04-01 15:22:00,30.4,15.3,30.35,NW,320,5.0,7.0,53,0.00,,CLR,0.00,VWS V14.01,2013-04-01 20:22:00,
2013-04-01 15:25:00,30.4,14.9,30.35,North,355,3.0,4.0,52,0.00,,CLR,0.00,VWS V14.01,2013-04-01 20:25:00,
2013-04-01 15:27:00,30.4,14.9,30.35,WNW,288,4.0,5.0,52,0.00,,CLR,0.00,VWS V14.01,2013-04-01 20:27:00,
2013-04-01 15:30:00,30.7,14.7,30.35,NW,308,9.0,11.0,51,0.00,,CLR,0.00,VWS V14.01,2013-04-01 20:30:00,
2013-04-01 15:32:00,30.7,15.2,30.35,NW,307,9.0,10.0,52,0.00,,CLR,0.00,VWS V14.01,2013-04-01 20:32:00,
2013-04-01 15:35:00,30.7,14.3,30.35,NW,319,13.0,13.0,50,0.00,,CLR,0.00,VWS V14.01,2013-04-01 20:35:00,
2013-04-01 15:37:00,30.7,14.7,30.35,WNW,303,14.0,16.0,51,0.00,,CLR,0.00,VWS V14.01,2013-04-01 20:37:00,
2013-04-01 15:40:00,30.6,15.1,30.35,WSW,250,6.0,10.0,52,0.00,,CLR,0.00,VWS V14.01,2013-04-01 20:40:00,
2013-04-01 15:43:00,30.6,14.6,30.35,NW,313,5.0,11.0,51,0.00,,CLR,0.00,VWS V14.01,2013-04-01 20:43:00,
2013-04-01 15:45:00,30.7,15.2,30.35,NW,319,10.0,10.0,52,0.00,,CLR,0.00,VWS V14.01,2013-04-01 20:45:00,
2013-04-01 15:48:00,30.7,15.6,30.35,WNW,288,10.0,10.0,53,0.00,,CLR,0.00,VWS V14.01,2013-04-01 20:48:00,
2013-04-01 15:50:00,30.5,14.5,30.35,NW,317,10.0,12.0,51,0.00,,CLR,0.00,VWS V14.01,2013-04-01 20:50:00,
2013-04-01 15:53:00,30.5,14.5,30.35,NNW,331,4.0,7.0,51,0.00,,CLR,0.00,VWS V14.01,2013-04-01 20:53:00,
2013-04-01 15:55:00,30.8,16.1,30.35,NW,325,12.0,12.0,54,0.00,,CLR,0.00,VWS V14.01,2013-04-01 20:55:00,
2013-04-01 15:58:00,30.8,16.1,30.35,NW,320,12.0,12.0,54,0.00,,CLR,0.00,VWS V14.01,2013-04-01 20:58:00,
2013-04-01 16:00:00,30.6,14.6,30.35,NW,320,12.0,18.0,51,0.00,,CLR,0.00,VWS V14.01,2013-04-01 21:00:00,
2013-04-01 16:03:00,30.6,14.6,30.35,WNW,294,16.0,16.0,51,0.00,,CLR,0.00,VWS V14.01,2013-04-01 21:03:00,
2013-04-01 16:05:00,30.6,14.6,30.35,NW,309,14.0,14.0,51,0.00,,CLR,0.00,VWS V14.01,2013-04-01 21:05:00,
2013-04-01 16:08:00,30.6,14.6,30.35,NW,309,11.0,14.0,51,0.00,,CLR,0.00,VWS V14.01,2013-04-01 21:08:00,
2013-04-01 16:10:00,30.5,14.5,30.35,WNW,298,11.0,12.0,51,0.00,,CLR,0.00,VWS V14.01,2013-04-01 21:10:00,
2013-04-01 16:13:00,30.5,14.5,30.35,WNW,300,5.0,9.0,51,0.00,,CLR,0.00,VWS V14.01,2013-04-01 21:13:00,
2013-04-01 16:15:00,30.6,14.6,30.35,WNW,290,14.0,14.0,51,0.00,,CLR,0.00,VWS V14.01,2013-04-01 21:15:00,
2013-04-01 16:18:00,30.6,14.6,30.35,WNW,290,14.0,14.0,51,0.00,,CLR,0.00,VWS V14.01,2013-04-01 21:18:00,
2013-04-01 16:20:00,30.6,15.1,30.35,WNW,300,9.0,10.0,52,0.00,,CLR,0.00,VWS V14.01,2013-04-01 21:20:00,
2013-04-01 16:23:00,30.6,15.1,30.35,WNW,300,9.0,10.0,52,0.00,,CLR,0.00,VWS V14.01,2013-04-01 21:23:00,
2013-04-01 16:25:00,30.7,13.8,30.35,WNW,292,9.0,11.0,49,0.00,,CLR,0.00,VWS V14.01,2013-04-01 21:25:00,
2013-04-01 16:28:00,30.7,13.8,30.35,WNW,292,9.0,11.0,49,0.00,,CLR,0.00,VWS V14.01,2013-04-01 21:28:00,
2013-04-01 16:30:00,30.8,14.8,30.34,NW,315,15.0,17.0,51,0.00,,CLR,0.00,VWS V14.01,2013-04-01 21:30:00,
2013-04-01 16:33:00,30.8,14.8,30.34,NW,315,15.0,17.0,51,0.00,,CLR,0.00,VWS V14.01,2013-04-01 21:33:00,
2013-04-01 16:35:00,30.8,14.4,30.34,WNW,302,8.0,10.0,50,0.00,,CLR,0.00,VWS V14.01,2013-04-01 21:35:00,
2013-04-01 16:38:00,30.8,14.4,30.34,WNW,302,8.0,10.0,50,0.00,,CLR,0.00,VWS V14.01,2013-04-01 21:38:00,
2013-04-01 16:40:00,31.2,15.2,30.34,WNW,300,13.0,14.0,51,0.00,,CLR,0.00,VWS V14.01,2013-04-01 21:40:00,
2013-04-01 16:43:00,31.2,15.2,30.34,WNW,300,13.0,14.0,51,0.00,,CLR,0.00,VWS V14.01,2013-04-01 21:43:00,
2013-04-01 16:45:00,31.0,13.6,30.34,NW,308,10.0,13.0,48,0.00,,CLR,0.00,VWS V14.01,2013-04-01 21:45:00,
2013-04-01 16:48:00,31.0,13.6,30.34,NW,308,10.0,13.0,48,0.00,,CLR,0.00,VWS V14.01,2013-04-01 21:48:00,
2013-04-01 16:50:00,31.0,14.6,30.34,WNW,303,11.0,12.0,50,0.00,,CLR,0.00,VWS V14.01,2013-04-01 21:50:00,
2013-04-01 16:53:00,31.0,14.6,30.34,NW,323,12.0,13.0,50,0.00,,CLR,0.00,VWS V14.01,2013-04-01 21:53:00,
2013-04-01 16:55:00,31.1,15.1,30.34,NW,313,9.0,10.0,51,0.00,,CLR,0.00,VWS V14.01,2013-04-01 21:55:00,
2013-04-01 16:58:00,31.1,15.1,30.34,NNW,336,14.0,14.0,51,0.00,,CLR,0.00,VWS V14.01,2013-04-01 21:58:00,
2013-04-01 17:00:00,31.1,15.5,30.34,NW,312,16.0,16.0,52,0.00,,CLR,0.00,VWS V14.01,2013-04-01 22:00:00,
2013-04-01 17:03:00,31.1,15.5,30.34,NNW,337,10.0,13.0,52,0.00,,CLR,0.00,VWS V14.01,2013-04-01 22:03:00,
2013-04-01 17:05:00,31.3,14.8,30.34,West,279,12.0,12.0,50,0.00,,CLR,0.00,VWS V14.01,2013-04-01 22:05:00,
2013-04-01 17:08:00,31.3,15.7,30.34,WNW,293,6.0,6.0,52,0.00,,CLR,0.00,VWS V14.01,2013-04-01 22:08:00,
2013-04-01 17:10:00,31.3,15.3,30.34,NW,308,10.0,11.0,51,0.00,,CLR,0.00,VWS V14.01,2013-04-01 22:10:00,
2013-04-01 17:14:00,31.3,14.8,30.34,NW,315,7.0,7.0,50,0.00,,CLR,0.00,VWS V14.01,2013-04-01 22:14:00,
2013-04-01 17:15:00,31.0,14.1,30.34,WNW,303,11.0,14.0,49,0.00,,CLR,0.00,VWS V14.01,2013-04-01 22:15:00,
2013-04-01 17:19:00,31.0,14.1,30.34,NW,315,11.0,11.0,49,0.00,,CLR,0.00,VWS V14.01,2013-04-01 22:19:00,
2013-04-01 17:20:00,30.8,13.4,30.34,WNW,288,7.0,12.0,48,0.00,,CLR,0.00,VWS V14.01,2013-04-01 22:20:00,
2013-04-01 17:24:00,30.8,14.4,30.34,North,355,4.0,6.0,50,0.00,,CLR,0.00,VWS V14.01,2013-04-01 22:24:00,
2013-04-01 17:25:00,30.8,14.8,30.34,NW,315,8.0,10.0,51,0.00,,CLR,0.00,VWS V14.01,2013-04-01 22:25:00,
2013-04-01 17:29:00,30.9,15.4,30.34,WNW,303,9.0,9.0,52,0.00,,CLR,0.00,VWS V14.01,2013-04-01 22:29:00,
2013-04-01 17:30:00,31.1,16.4,30.34,WNW,286,7.0,7.0,54,0.00,,CLR,0.00,VWS V14.01,2013-04-01 22:30:00,
2013-04-01 17:34:00,31.2,15.6,30.34,NNW,331,4.0,6.0,52,0.00,,CLR,0.00,VWS V14.01,2013-04-01 22:34:00,
2013-04-01 17:35:00,31.2,15.2,30.34,NW,308,7.0,10.0,51,0.00,,CLR,0.00,VWS V14.01,2013-04-01 22:35:00,
2013-04-01 17:39:00,31.2,15.2,30.34,NW,306,11.0,11.0,51,0.00,,CLR,0.00,VWS V14.01,2013-04-01 22:39:00,
2013-04-01 17:40:00,30.9,14.0,30.34,NW,321,9.0,10.0,49,0.00,,CLR,0.00,VWS V14.01,2013-04-01 22:40:00,
2013-04-01 17:44:00,30.9,14.0,30.34,WNW,297,6.0,11.0,49,0.00,,CLR,0.00,VWS V14.01,2013-04-01 22:44:00,
2013-04-01 17:45:00,30.9,15.4,30.34,NW,319,6.0,6.0,52,0.00,,CLR,0.00,VWS V14.01,2013-04-01 22:45:00,
2013-04-01 17:49:00,31.0,15.9,30.34,NW,305,7.0,7.0,53,0.00,,CLR,0.00,VWS V14.01,2013-04-01 22:49:00,
2013-04-01 17:50:00,30.9,14.9,30.34,NW,322,7.0,9.0,51,0.00,,CLR,0.00,VWS V14.01,2013-04-01 22:50:00,
2013-04-01 17:54:00,30.9,15.4,30.34,WNW,300,8.0,10.0,52,0.00,,CLR,0.00,VWS V14.01,2013-04-01 22:54:00,
2013-04-01 17:55:00,30.9,15.8,30.34,NW,309,10.0,10.0,53,0.00,,CLR,0.00,VWS V14.01,2013-04-01 22:55:00,
2013-04-01 17:59:00,30.8,15.7,30.34,NNW,327,3.0,5.0,53,0.00,,CLR,0.00,VWS V14.01,2013-04-01 22:59:00,
2013-04-01 18:00:00,30.8,14.8,30.34,NW,323,3.0,3.0,51,0.00,,CLR,0.00,VWS V14.01,2013-04-01 23:00:00,
2013-04-01 18:04:00,30.8,14.8,30.34,NW,316,9.0,10.0,51,0.00,,CLR,0.00,VWS V14.01,2013-04-01 23:04:00,
2013-04-01 18:05:00,30.7,15.6,30.35,NW,321,9.0,11.0,53,0.00,,CLR,0.00,VWS V14.01,2013-04-01 23:05:00,
2013-04-01 18:09:00,30.7,15.6,30.34,NW,315,11.0,12.0,53,0.00,,CLR,0.00,VWS V14.01,2013-04-01 23:09:00,
2013-04-01 18:10:00,30.6,15.5,30.34,NW,307,10.0,10.0,53,0.00,,CLR,0.00,VWS V14.01,2013-04-01 23:10:00,
2013-04-01 18:14:00,30.6,15.9,30.34,NW,314,5.0,5.0,54,0.00,,CLR,0.00,VWS V14.01,2013-04-01 23:14:00,
2013-04-01 18:15:00,30.6,15.9,30.34,NW,318,9.0,9.0,54,0.00,,CLR,0.00,VWS V14.01,2013-04-01 23:15:00,
2013-04-01 18:19:00,30.5,15.9,30.34,NW,309,4.0,10.0,54,0.00,,CLR,0.00,VWS V14.01,2013-04-01 23:19:00,
2013-04-01 18:20:00,30.3,15.2,30.34,WNW,303,13.0,13.0,53,0.00,,CLR,0.00,VWS V14.01,2013-04-01 23:20:00,
2013-04-01 18:24:00,30.3,15.2,30.34,WNW,300,10.0,13.0,53,0.00,,CLR,0.00,VWS V14.01,2013-04-01 23:24:00,
2013-04-01 18:25:00,30.1,15.5,30.34,NW,322,7.0,11.0,54,0.00,,CLR,0.00,VWS V14.01,2013-04-01 23:25:00,
2013-04-01 18:29:00,30.1,15.5,30.34,NW,311,5.0,5.0,54,0.00,,CLR,0.00,VWS V14.01,2013-04-01 23:29:00,
2013-04-01 18:30:00,30.1,15.5,30.35,NW,308,7.0,9.0,54,0.00,,CLR,0.00,VWS V14.01,2013-04-01 23:30:00,
2013-04-01 18:34:00,30.0,15.4,30.35,West,272,7.0,7.0,54,0.00,,CLR,0.00,VWS V14.01,2013-04-01 23:34:00,
2013-04-01 18:35:00,29.8,15.2,30.35,NW,320,6.0,12.0,54,0.00,,CLR,0.00,VWS V14.01,2013-04-01 23:35:00,
2013-04-01 18:40:00,29.7,15.1,30.35,NNW,331,6.0,7.0,54,0.00,,CLR,0.00,VWS V14.01,2013-04-01 23:40:00,
2013-04-01 18:45:00,29.2,15.5,30.35,WNW,286,4.0,10.0,56,0.00,,CLR,0.00,VWS V14.01,2013-04-01 23:45:00,
2013-04-01 18:50:00,28.9,15.2,30.35,NW,312,10.0,10.0,56,0.00,,CLR,0.00,VWS V14.01,2013-04-01 23:50:00,
2013-04-01 18:55:00,28.7,15.4,30.35,WNW,284,1.0,3.0,57,0.00,,CLR,0.00,VWS V14.01,2013-04-01 23:55:00,
2013-04-01 19:00:00,28.5,14.8,30.35,WNW,289,6.0,7.0,56,0.00,,CLR,0.00,VWS V14.01,2013-04-02 00:00:00,
2013-04-01 19:05:00,28.4,14.7,30.35,WNW,300,5.0,7.0,56,0.00,,CLR,0.00,VWS V14.01,2013-04-02 00:05:00,
2013-04-01 19:10:00,28.2,14.9,30.35,NW,309,5.0,9.0,57,0.00,,CLR,0.00,VWS V14.01,2013-04-02 00:10:00,
2013-04-01 19:15:00,28.0,15.1,30.35,NW,306,4.0,4.0,58,0.00,,CLR,0.00,VWS V14.01,2013-04-02 00:15:00,
2013-04-01 19:20:00,27.8,15.0,30.35,NW,315,6.0,7.0,58,0.00,,CLR,0.00,VWS V14.01,2013-04-02 00:20:00,
2013-04-01 19:25:00,27.6,15.2,30.35,WNW,300,5.0,9.0,59,0.00,,CLR,0.00,VWS V14.01,2013-04-02 00:25:00,
2013-04-01 19:30:00,27.4,15.0,30.35,NNW,334,3.0,4.0,59,0.00,,CLR,0.00,VWS V14.01,2013-04-02 00:30:00,
2013-04-01 19:35:00,27.1,14.7,30.35,NW,304,4.0,5.0,59,0.00,,CLR,0.00,VWS V14.01,2013-04-02 00:35:00,
2013-04-01 19:40:00,26.9,14.9,30.35,NW,311,4.0,4.0,60,0.00,,CLR,0.00,VWS V14.01,2013-04-02 00:40:00,
2013-04-01 19:45:00,26.6,15.0,30.35,NW,315,4.0,6.0,61,0.00,,CLR,0.00,VWS V14.01,2013-04-02 00:45:00,
2013-04-01 19:50:00,26.3,14.7,30.35,WNW,282,3.0,7.0,61,0.00,,CLR,0.00,VWS V14.01,2013-04-02 00:50:00,
2013-04-01 19:55:00,26.1,14.5,30.35,NNW,329,5.0,6.0,61,0.00,,CLR,0.00,VWS V14.01,2013-04-02 00:55:00,
2013-04-01 20:00:00,26.0,14.4,30.35,NNW,342,4.0,7.0,61,0.00,,CLR,0.00,VWS V14.01,2013-04-02 01:00:00,
2013-04-01 20:05:00,25.7,14.5,30.34,NW,304,5.0,5.0,62,0.00,,CLR,0.00,VWS V14.01,2013-04-02 01:05:00,
2013-04-01 20:06:00,25.8,14.6,30.34,WNW,298,3.0,3.0,62,0.00,,CLR,0.00,VWS V14.01,2013-04-02 01:06:00,
2013-04-01 20:10:00,25.5,14.3,30.34,NW,313,3.0,6.0,62,0.00,,CLR,0.00,VWS V14.01,2013-04-02 01:10:00,
2013-04-01 20:11:00,25.6,14.4,30.34,NNW,331,4.0,6.0,62,0.00,,CLR,0.00,VWS V14.01,2013-04-02 01:11:00,
2013-04-01 20:15:00,25.3,14.1,30.34,NW,318,6.0,6.0,62,0.00,,CLR,0.00,VWS V14.01,2013-04-02 01:15:00,
2013-04-01 20:16:00,25.4,14.2,30.34,NW,323,2.0,3.0,62,0.00,,CLR,0.00,VWS V14.01,2013-04-02 01:16:00,
2013-04-01 20:20:00,25.1,14.3,30.34,NW,305,3.0,5.0,63,0.00,,CLR,0.00,VWS V14.01,2013-04-02 01:20:00,
2013-04-01 20:21:00,25.2,14.4,30.34,NW,305,7.0,8.0,63,0.00,,CLR,0.00,VWS V14.01,2013-04-02 01:21:00,
2013-04-01 20:25:00,25.0,14.2,30.34,WNW,303,7.0,8.0,63,0.00,,CLR,0.00,VWS V14.01,2013-04-02 01:25:00,
2013-04-01 20:26:00,25.0,14.2,30.34,NNW,330,4.0,6.0,63,0.00,,CLR,0.00,VWS V14.01,2013-04-02 01:26:00,
2013-04-01 20:30:00,25.0,14.2,30.34,NW,309,4.0,4.0,63,0.00,,CLR,0.00,VWS V14.01,2013-04-02 01:30:00,
2013-04-01 20:32:00,25.0,14.2,30.34,NW,317,2.0,4.0,63,0.00,,CLR,0.00,VWS V14.01,2013-04-02 01:32:00,
2013-04-01 20:35:00,24.9,14.1,30.34,NW,317,3.0,5.0,63,0.00,,CLR,0.00,VWS V14.01,2013-04-02 01:35:00,
2013-04-01 20:37:00,24.9,14.1,30.34,NW,317,5.0,9.0,63,0.00,,CLR,0.00,VWS V14.01,2013-04-02 01:37:00,
2013-04-01 20:40:00,24.7,13.9,30.34,WNW,298,3.0,9.0,63,0.00,,CLR,0.00,VWS V14.01,2013-04-02 01:40:00,
2013-04-01 20:42:00,24.8,14.0,30.34,NW,317,5.0,7.0,63,0.00,,CLR,0.00,VWS V14.01,2013-04-02 01:42:00,
2013-04-01 20:45:00,24.5,14.1,30.34,NW,309,6.0,6.0,64,0.00,,CLR,0.00,VWS V14.01,2013-04-02 01:45:00,
2013-04-01 20:47:00,24.5,13.7,30.34,WNW,303,2.0,4.0,63,0.00,,CLR,0.00,VWS V14.01,2013-04-02 01:47:00,
2013-04-01 20:50:00,24.4,13.6,30.35,WNW,300,3.0,3.0,63,0.00,,CLR,0.00,VWS V14.01,2013-04-02 01:50:00,
2013-04-01 20:52:00,24.4,14.0,30.35,WNW,298,5.0,6.0,64,0.00,,CLR,0.00,VWS V14.01,2013-04-02 01:52:00,
2013-04-01 20:55:00,24.3,13.9,30.35,NW,310,2.0,3.0,64,0.00,,CLR,0.00,VWS V14.01,2013-04-02 01:55:00,
2013-04-01 20:57:00,24.3,13.9,30.35,WNW,297,3.0,3.0,64,0.00,,CLR,0.00,VWS V14.01,2013-04-02 01:57:00,
2013-04-01 21:00:00,24.0,13.6,30.35,NW,311,4.0,4.0,64,0.00,,CLR,0.00,VWS V14.01,2013-04-02 02:00:00,
2013-04-01 21:02:00,24.1,13.7,30.35,WNW,298,5.0,5.0,64,0.00,,CLR,0.00,VWS V14.01,2013-04-02 02:02:00,
2013-04-01 21:05:00,23.8,13.4,30.35,NW,323,3.0,5.0,64,0.00,,CLR,0.00,VWS V14.01,2013-04-02 02:05:00,
2013-04-01 21:07:00,23.9,13.5,30.35,NW,317,5.0,6.0,64,0.00,,CLR,0.00,VWS V14.01,2013-04-02 02:07:00,
2013-04-01 21:10:00,23.7,13.3,30.36,NW,304,3.0,7.0,64,0.00,,CLR,0.00,VWS V14.01,2013-04-02 02:10:00,
2013-04-01 21:12:00,23.7,13.3,30.35,WNW,300,2.0,5.0,64,0.00,,CLR,0.00,VWS V14.01,2013-04-02 02:12:00,
2013-04-01 21:15:00,23.6,13.2,30.36,WNW,294,2.0,3.0,64,0.00,,CLR,0.00,VWS V14.01,2013-04-02 02:15:00,
2013-04-01 21:17:00,23.6,13.2,30.36,NNW,336,2.0,4.0,64,0.00,,CLR,0.00,VWS V14.01,2013-04-02 02:17:00,
2013-04-01 21:20:00,23.5,13.1,30.36,West,268,3.0,3.0,64,0.00,,CLR,0.00,VWS V14.01,2013-04-02 02:20:00,
2013-04-01 21:22:00,23.5,13.1,30.36,North,350,5.0,7.0,64,0.00,,CLR,0.00,VWS V14.01,2013-04-02 02:22:00,
2013-04-01 21:25:00,23.4,12.7,30.36,NNW,336,3.0,4.0,63,0.00,,CLR,0.00,VWS V14.01,2013-04-02 02:25:00,
2013-04-01 21:27:00,23.4,13.0,30.36,WNW,285,4.0,6.0,64,0.00,,CLR,0.00,VWS V14.01,2013-04-02 02:27:00,
2013-04-01 21:30:00,23.4,12.7,30.36,NW,322,5.0,9.0,63,0.00,,CLR,0.00,VWS V14.01,2013-04-02 02:30:00,
2013-04-01 21:32:00,23.4,12.7,30.36,WNW,294,5.0,5.0,63,0.00,,CLR,0.00,VWS V14.01,2013-04-02 02:32:00,
2013-04-01 21:35:00,23.3,12.6,30.36,NW,309,4.0,5.0,63,0.00,,CLR,0.00,VWS V14.01,2013-04-02 02:35:00,
2013-04-01 21:37:00,23.3,12.6,30.36,NW,304,5.0,6.0,63,0.00,,CLR,0.00,VWS V14.01,2013-04-02 02:37:00,
2013-04-01 21:40:00,23.2,12.5,30.36,WNW,296,6.0,7.0,63,0.00,,CLR,0.00,VWS V14.01,2013-04-02 02:40:00,
2013-04-01 21:42:00,23.2,12.5,30.36,NW,324,4.0,5.0,63,0.00,,CLR,0.00,VWS V14.01,2013-04-02 02:42:00,
2013-04-01 21:45:00,23.1,12.8,30.36,WNW,299,5.0,8.0,64,0.00,,CLR,0.00,VWS V14.01,2013-04-02 02:45:00,
2013-04-01 21:47:00,23.1,12.8,30.36,NNW,333,3.0,4.0,64,0.00,,CLR,0.00,VWS V14.01,2013-04-02 02:47:00,
2013-04-01 21:50:00,22.9,12.6,30.36,NW,318,2.0,2.0,64,0.00,,CLR,0.00,VWS V14.01,2013-04-02 02:50:00,
2013-04-01 21:52:00,22.9,12.6,30.36,NW,323,5.0,5.0,64,0.00,,CLR,0.00,VWS V14.01,2013-04-02 02:52:00,
2013-04-01 21:55:00,22.7,12.4,30.36,NNW,327,5.0,5.0,64,0.00,,CLR,0.00,VWS V14.01,2013-04-02 02:55:00,
2013-04-01 21:58:00,22.8,12.5,30.36,NNW,336,5.0,5.0,64,0.00,,CLR,0.00,VWS V14.01,2013-04-02 02:58:00,
2013-04-01 22:00:00,22.5,12.5,30.36,WNW,303,2.0,3.0,65,0.00,,CLR,0.00,VWS V14.01,2013-04-02 03:00:00,
2013-04-01 22:03:00,22.5,12.2,30.36,NW,308,2.0,3.0,64,0.00,,CLR,0.00,VWS V14.01,2013-04-02 03:03:00,
2013-04-01 22:05:00,22.3,12.3,30.36,NW,314,4.0,4.0,65,0.00,,CLR,0.00,VWS V14.01,2013-04-02 03:05:00,
2013-04-01 22:08:00,22.4,12.4,30.36,NW,309,2.0,3.0,65,0.00,,CLR,0.00,VWS V14.01,2013-04-02 03:08:00,
2013-04-01 22:10:00,22.1,12.1,30.36,NW,305,0.0,0.0,65,0.00,,CLR,0.00,VWS V14.01,2013-04-02 03:10:00,
2013-04-01 22:13:00,22.1,12.1,30.36,NW,305,1.0,1.0,65,0.00,,CLR,0.00,VWS V14.01,2013-04-02 03:13:00,
2013-04-01 22:15:00,21.8,12.2,30.36,WNW,287,0.0,1.0,66,0.00,,CLR,0.00,VWS V14.01,2013-04-02 03:15:00,
2013-04-01 22:18:00,21.8,12.2,30.36,WNW,287,0.0,0.0,66,0.00,,CLR,0.00,VWS V14.01,2013-04-02 03:18:00,
2013-04-01 22:20:00,21.6,12.0,30.36,WNW,295,1.0,2.0,66,0.00,,CLR,0.00,VWS V14.01,2013-04-02 03:20:00,
2013-04-01 22:23:00,21.6,12.0,30.36,WNW,284,1.0,1.0,66,0.00,,CLR,0.00,VWS V14.01,2013-04-02 03:23:00,
2013-04-01 22:25:00,21.3,11.7,30.36,NW,310,0.0,0.0,66,0.00,,CLR,0.00,VWS V14.01,2013-04-02 03:25:00,
2013-04-01 22:28:00,21.4,11.8,30.36,NW,311,0.0,0.0,66,0.00,,CLR,0.00,VWS V14.01,2013-04-02 03:28:00,
2013-04-01 22:30:00,21.2,12.0,30.37,NW,307,2.0,3.0,67,0.00,,CLR,0.00,VWS V14.01,2013-04-02 03:30:00,
2013-04-01 22:33:00,21.2,12.0,30.37,NW,307,3.0,3.0,67,0.00,,CLR,0.00,VWS V14.01,2013-04-02 03:33:00,
2013-04-01 22:35:00,21.1,12.2,30.36,NW,315,2.0,4.0,68,0.00,,CLR,0.00,VWS V14.01,2013-04-02 03:35:00,
2013-04-01 22:38:00,21.1,12.2,30.36,NW,315,2.0,4.0,68,0.00,,CLR,0.00,VWS V14.01,2013-04-02 03:38:00,
2013-04-01 22:40:00,21.0,12.4,30.37,NW,307,2.0,3.0,69,0.00,,CLR,0.00,VWS V14.01,2013-04-02 03:40:00,
2013-04-01 22:43:00,21.0,12.4,30.37,NW,307,2.0,3.0,69,0.00,,CLR,0.00,VWS V14.01,2013-04-02 03:43:00,
2013-04-01 22:45:00,20.9,12.4,30.36,NW,317,1.0,1.0,69,0.00,,CLR,0.00,VWS V14.01,2013-04-02 03:45:00,
2013-04-01 22:48:00,20.9,12.4,30.36,NW,317,2.0,2.0,69,0.00,,CLR,0.00,VWS V14.01,2013-04-02 03:48:00,
2013-04-01 22:50:00,20.8,12.6,30.36,WNW,283,3.0,4.0,70,0.00,,CLR,0.00,VWS V14.01,2013-04-02 03:50:00,
2013-04-01 22:53:00,20.8,12.6,30.36,WNW,283,3.0,4.0,70,0.00,,CLR,0.00,VWS V14.01,2013-04-02 03:53:00,
2013-04-01 22:55:00,20.7,12.8,30.36,NW,309,0.0,1.0,71,0.00,,CLR,0.00,VWS V14.01,2013-04-02 03:55:00,
2013-04-01 22:58:00,20.7,12.8,30.36,NW,309,0.0,1.0,71,0.00,,CLR,0.00,VWS V14.01,2013-04-02 03:58:00,
2013-04-01 23:00:00,20.6,12.7,30.36,NW,325,1.0,3.0,71,0.00,,CLR,0.00,VWS V14.01,2013-04-02 04:00:00,
2013-04-01 23:02:00,20.6,12.7,30.36,NW,315,0.0,2.0,71,0.00,,CLR,0.00,VWS V14.01,2013-04-02 04:02:00,
2013-04-01 23:05:00,20.4,12.8,30.36,WNW,297,0.0,1.0,72,0.00,,CLR,0.00,VWS V14.01,2013-04-02 04:05:00,
2013-04-01 23:08:00,20.4,12.8,30.36,WNW,290,0.0,1.0,72,0.00,,CLR,0.00,VWS V14.01,2013-04-02 04:08:00,
2013-04-01 23:10:00,20.3,12.7,30.36,WNW,283,0.0,0.0,72,0.00,,CLR,0.00,VWS V14.01,2013-04-02 04:10:00,
2013-04-01 23:13:00,20.3,12.7,30.36,WNW,283,0.0,0.0,72,0.00,,CLR,0.00,VWS V14.01,2013-04-02 04:13:00,
2013-04-01 23:15:00,20.1,12.9,30.36,NW,310,1.0,1.0,73,0.00,,CLR,0.00,VWS V14.01,2013-04-02 04:15:00,
2013-04-01 23:18:00,20.1,12.9,30.36,NW,311,1.0,2.0,73,0.00,,CLR,0.00,VWS V14.01,2013-04-02 04:18:00,
2013-04-01 23:20:00,20.1,12.9,30.36,NW,311,2.0,2.0,73,0.00,,CLR,0.00,VWS V14.01,2013-04-02 04:20:00,
2013-04-01 23:23:00,20.1,12.9,30.36,NW,311,0.0,2.0,73,0.00,,CLR,0.00,VWS V14.01,2013-04-02 04:23:00,
2013-04-01 23:25:00,20.0,12.8,30.36,West,281,0.0,0.0,73,0.00,,CLR,0.00,VWS V14.01,2013-04-02 04:25:00,
2013-04-01 23:28:00,20.0,12.8,30.36,West,281,0.0,2.0,73,0.00,,CLR,0.00,VWS V14.01,2013-04-02 04:28:00,
2013-04-01 23:30:00,19.8,12.6,30.36,WNW,286,0.0,1.0,73,0.00,,CLR,0.00,VWS V14.01,2013-04-02 04:30:00,
2013-04-01 23:33:00,19.8,12.6,30.36,WNW,286,0.0,0.0,73,0.00,,CLR,0.00,VWS V14.01,2013-04-02 04:33:00,
2013-04-01 23:35:00,19.7,12.8,30.36,WNW,296,0.0,1.0,74,0.00,,CLR,0.00,VWS V14.01,2013-04-02 04:35:00,
2013-04-01 23:38:00,19.7,12.8,30.36,WNW,296,0.0,1.0,74,0.00,,CLR,0.00,VWS V14.01,2013-04-02 04:38:00,
2013-04-01 23:40:00,19.7,12.8,30.36,NW,326,1.0,1.0,74,0.00,,CLR,0.00,VWS V14.01,2013-04-02 04:40:00,
2013-04-01 23:43:00,19.7,12.8,30.36,NW,326,0.0,1.0,74,0.00,,CLR,0.00,VWS V14.01,2013-04-02 04:43:00,
2013-04-01 23:45:00,19.4,12.8,30.36,WNW,288,2.0,3.0,75,0.00,,CLR,0.00,VWS V14.01,2013-04-02 04:45:00,
2013-04-01 23:48:00,19.4,12.8,30.36,WNW,288,3.0,3.0,75,0.00,,CLR,0.00,VWS V14.01,2013-04-02 04:48:00,
2013-04-01 23:50:00,19.3,12.7,30.36,WNW,302,2.0,3.0,75,0.00,,CLR,0.00,VWS V14.01,2013-04-02 04:50:00,
2013-04-01 23:53:00,19.3,12.7,30.36,WNW,302,3.0,3.0,75,0.00,,CLR,0.00,VWS V14.01,2013-04-02 04:53:00,
2013-04-01 23:55:00,19.0,12.4,30.36,WNW,283,0.0,1.0,75,0.00,,CLR,0.00,VWS V14.01,2013-04-02 04:55:00,
2013-04-01 23:58:00,19.0,12.4,30.36,WNW,283,1.0,1.0,75,0.00,,CLR,0.00,VWS V14.01,2013-04-02 04:58:00,